Location: Mat�lon
(46.2791°N, 7.1028°E)
Time: 17:32:55
(UTC+00:00)

Cosmos 2278 Rocket - Pass Details

Date: 18 September 2020
Orbit: 841 x 845 km, 71.0° (Epoch: 30 October)

Event Time Altitude Azimuth Distance (km) Brightness Sun altitude
Exits shadow 21:22:00 16° 28° (NNE) 2,068 4.4 -35.1°
Drops below altitude 10° 21:23:04 10° 28° (NNE) 2,468 4.8 -35.2°
Sets 21:25:31 0° 28° (NNE) 3,407 5.6 -35.5°
